Wind_Speed
12 12 11 11 12 12 12 12 12 11 11 11 11 12 11 11 11 11 11 11 12 13 13 14 14 13 13 13 13 14 13 13 13 12 13 14 13 12 11 12 12 13 12 12 12 12 13 15 15 17 19 19 19 18 17 17 17 17 17 17 17 18 18 18 18 18 19 18 17 17 18 18 19 18 18 17 17 17 16 16 16 17 17 17 17
14 13 12 12 12 12 12 11 12 12 11 11 11 11 10 9 9 10 10 10 10 11 12 12 13 12 12 12 12 12 12 11 12 11 12 13 13 12 11 12 13 14 14 13 13 13 13 14 15 16 18 18 17 17 17 17 17 17 16 16 17 17 17 17 17 17 18 17 17 17 18 18 17 17 17 16 17 17 16 16 16 16 17 17 16
15 13 12 12 12 12 12 12 13 12 11 11 11 11 10 9 9 10 10 10 10 10 10 10 11 11 11 11 11 11 11 11 11 11 11 12 12 12 11 12 12 13 14 14 14 14 14 13 14 15 16 17 16 16 17 17 17 16 15 15 16 17 17 17 17 17 17 17 17 16 17 17 17 17 17 16 16 16 16 16 16 16 17 16 16
15 13 13 12 12 13 13 13 13 12 11 11 11 11 10 10 10 10 10 10 10 10 10 10 10 10 10 11 11 10 10 11 11 10 10 11 12 12 11 12 12 12 13 14 14 14 14 13 14 15 15 16 15 16 16 16 16 16 15 14 15 16 16 16 17 17 16 16 16 15 16 16 16 16 16 16 16 16 16 16 17 16 16 16 16
14 13 12 12 12 13 14 13 12 11 11 10 10 10 10 10 10 10 10 9 9 9 9 10 10 10 10 10 10 9 9 10 10 10 9 10 12 11 11 11 12 12 12 14 14 14 14 13 13 14 15 15 14 15 16 16 15 15 15 14 14 15 16 16 16 17 15 15 15 15 16 16 16 16 16 16 16 16 16 16 16 16 16 16 15
14 13 13 13 12 12 13 12 11 10 10 9 9 9 9 10 10 10 9 8 8 8 8 9 8 9 9 9 9 8 8 9 9 9 8 9 10 10 10 11 11 11 12 14 14 13 13 12 11 12 14 15 14 14 15 15 14 14 14 14 14 15 15 15 16 16 15 15 15 15 15 15 16 16 16 15 16 15 15 16 16 16 16 15 15
14 14 14 14 12 10 11 11 11 10 9 9 9 9 9 9 9 9 8 8 8 8 8 8 7 7 8 8 9 8 8 9 9 9 8 8 9 9 10 10 11 12 12 14 15 13 13 11 10 11 14 16 14 14 14 14 13 13 14 14 15 15 15 15 15 14 15 15 14 14 15 14 15 15 14 14 14 14 14 14 14 15 15 14 14
13 14 14 13 12 9 10 12 11 10 9 9 9 9 9 9 8 8 7 7 7 7 7 6 6 6 6 7 8 7 8 8 8 8 8 9 9 9 9 10 11 13 13 13 15 15 14 11 11 13 16 16 14 14 15 14 14 13 13 14 16 15 15 15 14 13 14 15 14 14 14 14 13 13 13 13 12 12 13 12 13 13 13 13 13
13 13 13 12 10 10 12 13 11 10 9 9 9 9 8 7 7 6 6 7 6 7 7 6 7 6 6 7 8 8 7 8 8 7 7 8 9 8 9 10 11 13 13 13 15 16 15 14 16 18 18 16 15 15 15 14 14 14 14 15 15 15 14 13 13 12 13 13 14 14 13 13 13 13 13 12 11 11 11 11 11 12 12 12 12
14 13 12 11 10 11 13 12 11 9 8 9 9 8 7 7 7 6 7 8 7 8 8 7 8 7 6 7 9 8 7 8 8 7 7 8 8 8 9 10 11 13 14 14 15 16 17 17 17 17 16 15 15 15 15 14 14 14 14 14 14 14 14 13 12 12 12 12 13 13 13 13 13 13 13 12 11 11 10 10 10 10 11 11 11
14 13 11 10 11 12 12 11 10 9 8 8 8 7 7 7 8 8 8 9 8 8 8 8 9 8 6 7 9 9 8 9 9 8 8 8 9 9 10 10 10 12 14 15 15 16 17 18 17 16 16 15 15 15 15 14 14 14 14 14 14 14 13 12 11 11 11 11 12 13 12 12 12 12 12 12 11 11 10 10 10 10 11 11 11
13 12 11 11 11 11 10 9 9 8 8 8 7 7 8 8 9 9 8 9 9 8 9 9 9 8 7 7 9 10 9 9 9 9 9 9 9 10 11 11 12 11 13 15 16 16 17 18 16 16 15 15 15 14 14 14 13 13 13 13 12 13 12 12 11 11 11 11 12 12 11 11 11 11 12 12 11 10 10 10 10 10 10 11 11
13 12 11 11 10 10 9 9 9 8 7 8 8 8 9 9 10 10 10 11 10 10 10 10 8 8 8 8 9 10 10 10 10 9 9 9 10 12 12 12 14 13 14 17 17 17 16 16 16 16 15 14 14 14 14 14 13 13 13 13 13 12 12 12 11 11 11 11 12 12 11 10 9 10 12 11 10 10 10 10 10 10 10 11 11
13 12 12 11 9 8 8 8 8 7 7 8 8 9 10 10 10 10 11 11 11 11 11 10 9 9 9 8 9 10 10 10 10 10 9 9 11 13 13 13 15 14 15 18 18 17 16 16 16 15 15 15 14 14 14 14 15 15 14 14 14 14 14 13 11 11 11 11 11 10 9 9 8 10 11 11 10 10 10 11 10 10 10 10 10
13 12 12 10 8 7 8 7 7 8 8 8 9 10 11 11 12 11 11 11 11 11 11 10 10 11 10 10 11 11 10 11 12 11 10 10 12 14 14 14 15 15 15 18 18 16 16 16 16 16 16 15 14 15 16 16 16 16 16 16 16 15 16 15 13 12 10 10 10 9 8 7 7 9 10 10 10 10 10 10 10 9 9 9 9
12 12 11 10 8 7 8 7 7 8 8 9 9 10 11 11 12 12 11 12 12 12 11 11 12 14 13 12 12 12 12 13 13 12 12 12 13 15 15 16 16 15 16 17 18 16 16 15 16 16 15 15 14 15 16 17 17 16 15 16 16 14 15 16 14 12 11 10 9 9 8 6 7 9 9 9 9 9 9 9 9 9 8 8 8
12 12 11 10 8 6 7 8 7 8 9 9 10 10 10 10 11 12 12 13 13 13 13 13 14 16 16 14 13 13 14 15 14 14 14 14 15 16 17 17 17 16 17 17 17 16 15 15 15 16 15 15 14 15 16 16 16 16 15 15 15 14 15 15 13 12 11 10 10 8 7 6 7 8 8 9 9 9 8 8 8 8 8 8 7
11 11 11 10 9 5 5 7 8 8 9 9 9 9 9 10 11 12 13 13 14 14 15 15 16 17 17 15 14 15 17 17 17 17 16 16 17 18 18 17 17 17 17 18 17 16 15 15 15 16 16 15 14 14 15 15 14 14 15 15 15 14 15 15 13 13 12 11 9 8 6 6 7 8 9 9 9 8 8 8 8 8 8 8 7
11 10 10 11 11 7 4 5 7 7 8 8 8 8 8 10 11 12 13 13 14 16 16 17 17 18 18 16 16 18 19 19 19 18 18 18 18 18 18 18 17 16 17 17 16 16 16 15 16 16 16 15 14 14 14 14 13 13 14 14 14 13 14 12 11 12 11 10 8 7 7 8 9 9 9 9 8 8 8 8 8 8 8 8 8
11 10 10 10 10 9 7 5 5 6 8 8 8 8 8 9 11 13 13 13 15 17 16 17 19 20 20 17 17 20 20 20 19 19 19 19 19 19 19 18 17 16 16 16 16 16 16 16 16 16 16 15 14 14 14 13 13 13 13 13 13 12 11 10 11 11 9 9 7 6 7 9 9 9 9 8 8 8 7 8 8 8 8 8 8
10 10 9 9 9 9 8 6 6 6 7 8 9 8 8 9 10 12 14 13 14 16 17 17 18 22 23 19 18 20 20 20 20 20 20 20 19 19 19 19 18 17 16 16 16 16 16 16 15 15 15 15 14 14 13 13 12 13 13 12 12 10 10 10 11 9 8 8 7 6 8 8 9 9 8 8 7 7 7 7 7 7 8 7 7
10 9 9 9 8 8 8 7 6 5 6 7 8 8 8 9 9 11 14 14 14 15 17 17 18 22 24 21 19 20 20 21 21 21 20 19 18 18 18 19 18 18 18 17 16 16 16 15 14 14 14 14 14 14 13 12 12 12 12 11 11 10 10 11 10 9 7 7 6 6 8 8 8 8 8 8 8 7 7 7 7 7 7 7 6
10 8 9 8 7 8 7 7 6 6 6 7 8 8 8 9 9 11 13 14 14 15 17 18 18 21 23 23 21 20 19 21 21 21 20 19 17 17 17 18 18 18 18 17 17 17 16 15 14 13 13 12 13 13 11 10 10 10 11 10 10 10 10 10 9 8 7 6 5 6 8 7 7 8 8 7 8 7 7 7 6 6 6 6 6
10 8 9 8 7 7 7 7 6 7 6 6 8 8 8 9 10 11 12 13 13 15 16 18 18 19 21 23 23 21 20 21 21 20 20 18 17 16 16 16 17 17 18 17 16 16 15 14 14 14 13 12 12 11 8 7 8 7 8 7 8 9 8 8 8 7 6 5 5 6 7 7 7 7 7 7 7 7 7 6 6 6 6 6 7
10 9 8 8 7 7 7 7 7 7 7 7 7 8 8 9 10 10 11 12 12 14 16 17 17 18 19 22 24 23 22 20 20 19 18 18 17 16 15 15 16 17 18 17 16 16 14 13 14 14 13 11 10 9 7 7 7 7 7 6 7 9 7 6 7 7 6 5 4 5 6 7 7 6 6 6 6 6 6 6 7 7 7 8 8
10 9 8 8 8 7 7 7 7 7 7 7 7 7 8 9 10 10 11 12 12 13 14 16 16 16 18 20 21 22 22 20 19 18 18 18 17 16 15 15 16 18 18 17 16 16 15 14 13 13 12 10 9 9 9 8 8 7 8 8 9 9 7 5 5 6 6 4 3 4 6 6 7 6 7 7 6 6 6 7 8 8 9 9 9
10 9 8 8 8 7 6 7 7 7 7 7 7 7 7 9 10 10 11 11 12 13 13 15 15 15 16 17 18 18 19 19 19 18 17 16 15 15 15 15 17 19 18 17 16 13 12 12 11 11 10 8 8 9 9 10 9 8 7 9 9 8 8 6 5 6 5 4 4 5 5 6 6 6 7 7 6 7 7 8 9 10 10 10 10
10 9 8 7 8 7 6 7 7 7 7 7 7 7 7 8 9 10 11 11 11 12 13 13 14 14 14 14 15 16 17 17 17 16 15 15 15 16 16 15 16 17 16 14 13 10 8 9 10 9 9 7 7 7 8 8 9 8 6 8 8 8 8 6 5 6 4 3 4 5 6 6 6 7 7 7 8 8 9 10 10 11 11 11 11
11 10 8 7 7 7 6 6 7 7 7 7 7 7 7 8 9 9 10 10 10 11 12 12 13 13 14 13 13 14 15 15 16 16 16 16 17 18 17 16 16 15 14 12 11 10 9 9 9 8 8 7 6 7 8 6 7 7 7 7 7 7 8 6 6 6 4 4 5 5 6 6 7 7 8 9 10 10 11 11 12 12 12 12 11
11 10 9 8 7 7 6 6 7 7 7 7 6 7 8 8 8 8 9 9 9 10 11 12 12 13 13 14 14 14 14 14 16 17 18 18 18 19 17 17 17 14 12 12 12 10 9 8 7 6 6 6 5 7 8 6 6 6 6 7 6 6 6 6 6 6 5 5 5 6 7 7 7 8 9 11 11 12 12 12 13 12 12 12 11
11 10 9 9 8 7 6 6 6 7 8 7 6 7 8 8 8 8 8 8 9 9 10 11 12 12 14 14 14 15 14 15 16 18 18 18 18 19 17 16 15 14 12 11 11 10 9 9 9 8 7 7 6 8 9 7 6 6 6 6 6 5 5 5 5 5 5 5 6 7 7 8 8 9 11 11 12 13 13 13 13 12 12 12 11
11 10 9 9 8 8 7 6 6 7 7 7 7 7 7 8 8 8 8 9 9 10 10 12 12 12 13 14 14 15 16 16 17 18 18 18 18 17 15 14 13 13 11 11 12 12 11 12 13 11 9 7 7 8 8 7 6 6 6 6 5 5 5 5 5 5 4 6 8 8 8 9 9 10 11 11 12 13 13 12 12 12 11 11 12
10 10 10 9 9 8 8 7 7 7 7 7 7 7 7 8 8 8 9 9 10 10 10 12 13 13 14 15 15 16 16 17 17 18 18 17 16 15 13 12 12 12 12 13 14 12 10 9 11 9 8 7 6 7 7 6 6 6 5 5 5 4 4 4 4 4 4 5 6 7 8 9 10 10 10 11 12 12 12 12 12 11 11 11 11
10 10 10 10 10 9 8 7 7 8 8 8 8 8 8 7 7 8 9 9 10 10 10 11 12 13 14 16 16 15 16 16 16 17 16 15 14 13 12 11 11 11 12 13 10 8 7 7 6 6 6 6 6 6 6 6 5 5 5 5 4 4 4 4 3 4 4 3 4 6 7 8 10 10 10 11 12 12 11 11 11 11 11 11 11
10 11 10 10 10 9 9 8 8 8 8 8 8 9 9 8 7 8 9 9 9 10 9 10 11 13 14 15 15 14 14 14 13 14 15 13 11 11 10 10 11 10 10 11 8 6 6 6 5 5 4 5 5 6 6 5 5 5 4 4 4 4 4 3 3 3 3 3 3 4 6 8 9 10 11 11 11 11 11 10 10 10 11 11 11
11 11 11 11 10 9 9 8 8 9 9 9 9 9 9 9 8 8 9 9 9 10 9 9 10 12 13 13 14 13 12 12 12 12 13 12 9 9 9 10 10 9 8 9 7 5 5 5 5 4 4 5 5 5 5 5 5 5 4 4 4 4 4 3 3 3 2 3 3 4 5 8 10 11 12 11 10 10 10 9 10 10 11 11 11
12 11 11 11 10 9 9 9 8 9 9 10 10 10 9 9 9 9 9 9 9 9 9 10 10 10 12 13 13 12 12 11 11 12 11 10 9 8 8 9 9 8 8 7 5 4 4 4 4 4 4 4 5 5 5 4 4 4 4 4 3 3 3 3 3 3 3 3 3 3 3 5 9 10 9 8 8 8 9 9 10 10 11 11 11
12 11 11 10 10 9 9 10 9 9 9 10 11 11 10 10 10 9 9 9 9 8 9 10 9 9 10 11 11 11 10 10 10 11 10 9 9 7 8 9 8 8 7 6 5 4 4 4 4 4 4 4 4 4 4 4 4 4 4 3 3 3 3 2 3 3 3 3 3 3 3 3 4 6 7 6 5 7 8 9 10 11 11 11 11
12 12 11 11 11 10 10 11 10 10 10 11 12 12 11 11 10 10 10 9 9 10 9 10 9 9 9 10 10 10 10 9 9 9 9 9 8 8 8 8 8 8 7 5 4 4 4 5 4 5 5 4 4 4 4 4 3 3 4 4 3 3 2 2 2 2 2 2 2 3 3 3 3 4 7 7 5 5 7 9 10 10 10 11 12
13 13 13 12 12 11 11 11 10 10 11 12 12 12 11 11 10 9 10 9 10 10 9 9 9 9 10 11 10 9 9 9 9 9 9 9 8 8 8 8 8 7 6 5 4 4 5 6 6 5 5 4 4 4 3 3 4 4 5 5 4 3 2 2 2 1 2 2 2 3 3 2 2 3 4 5 4 3 6 10 10 9 9 10 11
14 14 14 12 12 11 11 11 11 11 12 12 13 12 11 11 10 9 8 9 10 10 9 8 8 9 10 11 10 9 9 9 10 10 9 9 9 8 8 8 7 7 6 5 4 5 6 6 6 5 4 3 4 4 4 4 4 5 5 5 5 4 3 2 2 2 2 2 2 2 3 3 2 2 3 4 6 5 5 9 9 8 8 9 9
15 14 14 13 12 12 12 12 12 12 12 12 12 12 11 10 9 9 8 8 9 9 8 8 8 8 10 10 10 9 9 9 10 10 9 9 8 8 8 8 7 6 6 5 4 5 5 5 5 4 3 3 4 3 4 5 4 5 6 6 6 5 4 3 3 3 2 3 3 2 3 3 2 2 3 4 6 5 4 5 6 6 7 8 8
15 15 14 14 13 13 13 13 12 12 12 12 12 10 10 10 9 9 9 8 8 9 9 10 10 8 9 10 9 9 8 9 9 9 9 9 9 9 7 7 6 6 5 4 4 3 3 4 4 2 2 3 3 4 5 5 5 5 5 5 6 6 6 4 4 4 3 3 3 3 3 3 3 3 3 4 4 3 3 3 5 6 7 8 7
15 15 15 14 14 14 14 14 13 13 12 12 12 10 9 10 10 9 11 11 10 11 11 12 11 10 9 9 9 8 7 7 8 9 10 9 10 10 8 7 6 5 4 3 3 2 2 3 2 2 2 2 3 4 4 5 5 4 4 4 5 5 6 5 5 5 3 4 4 4 4 4 3 3 4 3 2 3 3 4 6 7 8 8 8
16 16 16 15 14 15 15 14 13 13 13 12 12 11 11 11 10 10 11 13 12 11 11 10 11 10 8 8 8 8 7 7 8 9 9 9 10 10 8 7 5 4 4 2 2 3 3 2 1 1 2 3 3 3 4 5 5 6 6 4 4 5 5 4 4 4 4 4 4 4 4 4 3 2 3 2 1 3 3 3 5 6 7 7 7
16 16 16 16 15 15 15 15 13 13 13 13 13 12 12 11 11 11 12 12 10 10 9 8 9 9 7 8 8 8 8 7 8 9 9 9 9 9 8 6 4 4 4 3 3 3 2 2 1 1 1 2 4 3 4 4 4 6 6 5 5 5 4 3 3 4 4 4 4 4 4 3 2 2 2 2 1 2 1 1 3 4 4 5 6
16 15 15 15 16 16 16 16 14 14 14 14 13 13 13 11 11 11 11 10 9 9 11 9 9 9 8 9 9 9 9 8 8 9 9 9 8 8 8 7 5 4 4 4 3 2 2 3 2 2 1 2 4 3 3 3 3 4 4 4 4 4 4 5 4 4 4 3 3 4 4 3 2 2 2 2 1 1 1 1 2 2 3 4 5
15 15 15 16 17 17 17 16 15 15 15 15 14 14 13 12 12 12 11 10 8 9 12 11 10 9 8 9 8 8 10 9 9 10 10 9 8 7 7 7 6 5 4 3 3 3 4 4 3 2 1 1 2 2 2 3 2 2 2 2 2 3 4 5 4 4 3 3 4 3 3 4 3 3 2 2 2 1 1 1 1 2 2 4 5
16 15 15 15 17 17 17 17 16 16 15 15 15 14 14 13 12 12 12 11 9 8 9 9 10 10 9 9 9 9 9 9 9 10 9 9 8 7 7 6 6 5 5 4 4 4 4 3 2 2 1 1 1 1 1 2 2 1 1 1 2 2 2 2 3 3 2 3 4 3 3 3 3 2 2 1 2 2 1 2 2 2 3 4 5
16 16 15 15 16 17 17 17 17 16 16 16 15 14 13 13 13 13 13 12 11 10 9 10 10 10 10 10 10 10 9 8 8 9 9 8 8 7 6 6 5 5 5 5 5 4 3 3 2 2 3 2 3 2 1 1 0 0 0 1 1 1 1 1 1 2 2 1 1 2 2 1 1 2 1 1 1 2 2 3 3 3 4 5 6
17 17 16 15 16 17 18 18 18 17 16 16 15 14 13 14 14 14 13 12 11 11 11 11 10 10 10 9 9 10 9 8 8 8 8 7 7 7 7 6 6 6 6 6 4 3 2 3 3 4 4 3 3 3 2 2 2 2 2 2 1 1 1 1 0 0 1 1 1 1 0 0 1 1 1 1 1 2 3 3 4 4 4 5 6
Wind_Direction
139 133 132 133 125 119 112 110 109 107 104 102 101 101 104 105 105 106 106 103 101 99 99 100 101 101 101 102 101 103 108 112 113 113 113 107 103 100 98 101 104 102 103 105 103 102 100 98 95 99 105 106 104 101 100 100 100 99 99 97 94 95 96 92 89 88 90 91 89 88 86 85 85 84 82 81 83 85 85 84 84 85 84 82 82
140 135 132 133 125 118 115 116 110 104 102 101 99 100 104 109 114 113 113 110 106 104 102 102 101 101 103 104 105 108 111 112 110 111 111 107 103 100 99 97 96 98 103 107 108 105 102 100 97 101 108 107 105 103 101 100 99 99 99 96 94 97 97 94 91 89 91 91 88 86 85 84 84 85 84 83 82 84 85 84 83 83 82 81 81
136 136 135 133 127 122 120 115 106 103 103 104 104 107 111 113 113 111 111 110 108 108 106 106 104 104 105 105 108 112 113 111 108 106 107 106 103 100 97 91 91 98 104 107 109 108 106 105 101 102 110 111 107 107 104 102 100 98 98 97 96 97 97 95 92 91 92 90 89 87 84 84 83 83 83 83 83 83 83 82 82 81 82 82 82
134 136 135 133 129 124 119 112 106 108 110 110 114 117 118 113 109 105 104 105 108 109 109 110 110 110 109 110 112 116 118 115 111 106 103 104 102 99 96 93 95 101 104 109 111 110 110 109 104 102 111 114 109 108 107 104 101 97 98 99 97 96 97 96 94 92 91 91 90 86 83 82 81 81 80 82 82 83 82 81 81 81 82 82 82
135 134 132 131 128 123 118 113 111 116 116 118 124 125 123 117 110 104 103 107 110 110 110 111 114 116 117 120 120 122 122 118 115 110 104 103 102 100 101 100 100 103 106 110 111 110 112 111 108 103 111 117 111 109 109 106 101 98 99 99 96 95 97 96 94 92 90 90 88 84 81 80 79 80 80 82 81 79 80 80 80 81 81 81 80
136 134 133 130 128 125 120 116 119 123 123 128 130 127 120 114 107 100 101 105 110 111 111 112 116 120 124 130 128 128 126 122 119 115 113 108 105 105 104 104 105 109 112 113 110 109 110 110 110 106 113 121 114 109 108 105 101 99 99 99 96 95 97 96 94 93 91 85 82 82 80 80 79 79 78 79 77 76 78 79 81 82 79 77 77
136 134 134 130 126 127 123 120 125 128 127 129 124 118 112 106 101 98 99 101 104 106 108 112 116 120 126 134 133 134 134 129 125 123 124 121 114 111 109 108 111 116 117 116 114 112 107 105 111 112 118 123 115 107 106 105 102 100 100 99 98 98 98 96 94 94 93 87 84 84 82 80 79 78 77 74 73 74 75 76 79 80 79 78 76
133 132 131 126 122 129 125 120 124 125 123 120 113 110 105 103 101 100 103 102 104 104 107 116 121 124 122 127 134 137 136 131 130 131 134 131 124 119 116 115 117 119 120 118 116 111 102 99 108 114 119 120 112 106 106 105 103 101 100 99 98 97 95 92 91 91 92 92 91 88 82 79 77 76 76 76 75 74 74 76 78 78 79 79 77
132 129 125 118 121 130 122 118 120 118 115 109 105 102 101 100 100 97 96 100 105 105 109 115 119 124 124 125 128 130 133 131 133 139 142 133 127 126 121 121 121 119 121 118 114 109 101 99 106 112 116 114 106 103 102 102 102 101 99 98 97 95 91 88 87 89 90 89 90 88 85 83 80 76 73 75 78 79 79 79 79 77 79 80 79
132 125 119 115 126 127 117 116 116 113 107 99 92 91 93 92 90 86 85 93 99 104 107 109 108 109 116 122 121 126 136 137 141 147 147 134 128 129 123 124 123 120 122 120 117 112 105 103 108 112 113 109 104 102 102 102 102 99 96 95 95 93 90 86 85 86 87 88 88 86 87 87 84 78 74 76 80 83 83 82 84 83 82 81 78
131 124 120 123 129 121 115 115 113 106 94 89 89 92 91 89 89 87 88 93 96 104 105 106 107 105 112 118 120 130 138 142 145 147 146 137 133 128 123 124 125 126 125 123 121 118 111 109 113 114 112 109 106 104 102 101 99 96 93 91 91 90 88 86 84 82 84 87 87 85 85 85 81 76 74 78 84 84 83 84 86 85 82 79 74
128 123 125 129 128 120 118 113 103 92 88 90 94 96 91 88 89 89 93 95 96 103 102 101 106 109 114 117 121 129 136 142 145 148 147 139 133 123 123 126 127 134 130 126 125 120 116 117 120 116 111 108 104 101 100 98 96 93 90 88 88 88 88 87 85 82 82 84 88 91 88 82 78 75 73 77 86 86 84 84 83 82 79 75 70
128 124 128 129 126 121 114 105 96 90 95 98 96 95 91 89 88 91 93 93 96 102 103 102 106 112 115 117 122 129 133 137 140 147 145 134 128 121 125 126 126 135 134 130 128 124 123 123 122 116 110 106 101 100 98 96 93 90 88 87 88 90 91 92 92 89 85 84 88 92 87 80 77 74 72 76 85 86 85 85 84 81 77 73 67
129 127 128 125 122 116 108 102 100 99 101 99 98 96 92 91 88 87 87 88 93 97 104 106 108 111 114 119 123 128 134 136 136 140 142 132 126 122 124 124 124 131 133 131 129 128 129 125 120 117 113 110 106 102 97 94 93 92 91 89 89 91 93 95 96 94 90 88 85 85 83 81 81 75 74 79 84 86 87 85 84 80 74 68 62
130 127 124 123 120 115 113 109 104 100 95 94 95 93 89 90 87 82 82 86 89 92 99 103 104 107 110 115 120 125 129 132 133 136 141 134 125 122 123 124 125 127 131 131 130 128 126 121 119 117 115 113 110 104 99 97 95 94 93 90 87 88 92 93 96 97 96 93 86 85 82 80 85 79 75 80 86 88 88 85 81 76 69 64 60
130 124 122 124 123 124 118 107 100 97 94 92 90 88 85 86 86 81 80 86 89 93 98 98 99 104 109 113 118 123 123 127 132 133 136 131 123 122 122 123 122 123 127 130 130 126 121 118 116 114 113 112 107 102 100 99 98 96 92 90 87 87 91 89 89 94 95 94 90 87 83 81 85 82 79 84 89 89 86 83 79 73 66 61 59
130 125 125 123 114 115 112 101 97 97 94 92 91 89 87 86 85 82 80 84 90 94 95 94 96 101 105 109 115 121 121 123 126 128 128 125 122 121 122 121 120 121 125 128 127 124 122 119 114 111 110 107 104 100 99 98 98 96 92 90 87 87 90 87 86 91 94 95 94 93 93 92 89 85 86 89 90 86 81 77 74 71 63 57 57
129 127 127 119 110 104 101 100 100 99 95 93 94 94 93 89 86 83 80 85 90 91 90 92 97 100 102 107 112 117 120 121 123 126 124 122 121 120 119 118 118 120 122 124 124 123 122 117 110 108 106 104 102 101 100 98 98 96 94 91 88 89 90 89 91 95 95 94 95 101 107 102 94 90 91 91 87 82 77 73 69 66 62 58 58
129 128 128 118 116 118 112 99 99 100 97 98 100 97 95 91 88 85 81 85 89 88 90 95 99 100 100 106 114 116 118 119 121 122 120 119 119 118 117 116 117 118 119 122 123 122 119 112 107 105 102 102 102 101 100 98 97 96 94 92 91 90 87 88 92 92 91 92 92 98 103 98 93 90 89 88 84 79 75 72 68 65 63 59 60
132 135 135 122 122 128 129 118 111 108 106 109 104 98 95 90 89 89 84 82 87 92 95 97 101 101 100 104 114 118 118 120 122 121 119 119 118 118 117 115 116 117 118 121 120 119 114 109 106 103 102 104 104 101 98 97 98 97 95 93 92 88 87 92 91 89 94 97 92 89 92 92 89 86 86 84 79 75 70 69 66 63 61 58 58
137 143 140 127 127 133 133 128 127 118 113 110 102 99 97 91 88 90 86 78 82 92 96 97 102 104 103 105 113 118 121 123 125 124 122 121 119 118 116 113 113 115 117 116 114 111 107 105 104 103 104 105 103 98 96 97 97 96 94 93 90 88 95 97 92 92 97 95 92 86 86 87 86 84 80 77 72 69 67 66 63 60 59 56 56
141 147 142 133 132 136 135 130 131 121 111 105 105 104 97 93 88 88 84 78 78 83 91 98 101 104 105 108 112 116 121 124 124 123 121 120 119 116 114 111 110 112 114 113 112 109 105 106 106 105 104 104 103 98 92 91 92 93 91 88 88 93 98 97 97 101 100 97 97 88 84 85 85 84 79 74 68 65 63 60 60 61 60 59 59
142 146 144 139 138 138 133 127 127 122 114 111 112 110 103 98 89 87 83 80 81 81 87 95 99 103 108 112 114 117 121 122 121 120 119 118 117 115 113 110 108 109 111 113 114 113 112 113 109 104 99 96 95 93 89 86 87 88 85 84 91 97 98 97 98 99 102 105 98 87 86 87 85 85 81 75 68 62 59 56 57 63 66 68 68
142 147 150 146 143 140 132 127 128 124 119 117 117 114 109 98 89 90 87 84 84 85 87 92 97 102 108 112 115 119 120 120 120 118 117 116 114 113 112 109 108 108 110 111 112 112 111 109 104 101 98 90 85 88 91 89 86 84 83 91 100 98 94 95 97 98 102 100 92 90 89 89 87 84 81 76 68 61 58 56 59 70 78 81 77
145 147 153 150 144 141 134 132 130 128 125 122 120 115 107 98 94 95 91 90 90 91 92 94 98 101 105 111 116 119 120 120 120 118 116 117 116 113 111 110 110 110 108 107 107 109 109 109 107 102 95 90 90 95 99 94 93 96 97 101 98 94 90 89 96 101 100 92 88 92 90 87 86 82 79 74 66 63 61 61 66 77 85 86 85
149 146 156 155 147 144 136 135 134 133 131 125 120 113 108 103 102 101 95 94 95 96 97 99 100 102 106 111 115 118 119 121 120 119 117 115 115 114 114 116 116 114 112 111 112 115 117 115 109 97 89 91 99 105 108 105 102 98 98 98 92 91 92 88 92 97 98 98 88 88 88 83 79 75 74 74 71 69 67 72 79 86 88 87 86
150 149 159 157 148 147 140 136 137 135 131 125 120 116 113 109 107 106 103 100 100 99 100 103 104 105 106 107 111 116 120 123 121 121 119 115 116 119 121 122 122 120 118 115 113 114 112 106 102 98 96 98 99 99 102 104 103 96 90 91 90 90 91 88 96 99 96 99 92 83 82 78 75 72 71 74 77 78 81 88 93 92 89 86 83
153 151 154 156 149 149 148 142 143 137 132 128 123 121 117 111 108 106 106 106 104 102 103 106 106 107 108 107 109 114 120 122 122 123 123 124 127 127 127 126 124 123 120 117 115 117 118 110 107 109 108 106 102 103 99 96 99 101 93 87 87 89 91 91 93 96 90 85 80 71 74 76 76 77 78 83 86 90 96 99 97 92 89 86 83
154 153 151 154 153 151 150 146 147 141 135 133 128 126 122 115 112 107 108 109 107 107 108 108 109 112 114 115 114 116 119 121 123 126 127 129 131 130 129 129 127 124 124 128 129 130 132 125 117 114 113 111 113 116 109 103 103 102 100 91 88 87 87 88 83 87 90 83 75 63 68 75 80 87 91 93 96 100 102 99 95 91 88 84 80
157 156 151 153 155 149 150 151 149 145 139 136 132 128 125 121 114 111 111 109 109 110 110 111 113 116 119 121 120 119 118 122 126 128 128 128 129 129 129 129 126 124 128 130 128 128 127 122 118 114 112 112 118 119 112 111 108 101 99 96 93 87 83 82 75 74 74 73 76 68 68 79 87 94 99 101 105 105 101 97 92 88 84 79 74
160 157 154 156 154 144 153 159 148 147 143 136 138 132 127 125 118 114 115 113 113 110 110 115 115 118 122 121 121 120 122 127 129 127 127 126 127 127 126 126 125 124 126 123 120 121 120 120 121 117 112 110 112 112 109 106 105 98 95 95 95 91 83 83 74 72 73 70 79 75 72 84 93 99 105 107 107 104 99 94 89 83 78 74 70
165 161 161 157 149 147 161 161 152 155 146 139 141 135 129 127 120 116 118 118 115 108 109 117 120 121 123 123 124 125 128 130 129 127 127 127 127 126 125 127 126 124 123 122 121 119 115 116 117 114 110 106 104 104 104 103 102 98 97 95 94 90 85 87 84 85 81 65 71 76 76 86 97 102 107 108 104 100 95 89 83 79 74 71 69
167 166 164 156 151 156 163 159 158 160 150 146 146 140 136 129 122 119 120 120 115 110 112 118 125 127 128 130 128 126 127 127 127 128 128 128 127 124 124 127 127 125 125 124 120 115 112 112 110 107 102 100 101 100 101 104 100 98 100 95 92 93 88 84 83 87 83 63 67 77 80 88 98 103 104 102 99 95 89 84 79 74 72 70 67
168 170 164 158 159 159 160 160 162 162 161 157 149 146 141 134 128 123 123 121 115 113 114 117 124 130 132 132 128 125 126 126 127 127 127 127 126 125 127 129 128 125 126 123 115 110 112 108 101 97 96 99 102 100 100 104 99 96 98 95 94 92 88 85 86 84 90 93 85 86 89 93 99 100 98 94 91 88 82 78 75 72 71 68 63
172 170 166 164 164 161 158 163 165 162 166 162 154 152 146 140 135 131 130 125 119 116 115 117 125 130 132 132 131 130 128 128 128 127 126 124 124 127 128 131 129 122 126 125 114 109 109 103 98 93 91 98 101 100 100 100 95 94 94 97 99 87 81 86 88 84 87 97 92 97 106 105 103 100 97 91 84 80 76 73 71 70 68 63 58
176 171 170 167 165 169 161 162 168 162 167 167 161 158 151 148 142 139 137 130 125 124 124 125 129 131 132 134 133 131 131 131 132 131 127 125 128 130 129 131 127 121 126 123 110 107 107 101 99 95 92 95 97 98 98 94 92 96 96 101 102 87 85 80 75 87 105 109 102 100 103 108 111 107 98 90 82 75 71 69 67 65 62 58 57
179 175 175 169 167 176 163 159 171 165 167 169 167 163 155 152 148 145 144 137 131 131 134 134 135 139 137 136 133 130 132 133 134 135 132 130 129 129 131 131 126 127 127 117 106 105 102 95 91 92 87 82 90 97 95 93 95 100 102 110 110 88 83 78 76 95 104 101 111 112 98 105 109 102 91 81 77 74 67 63 62 60 58 57 59
181 179 179 173 170 176 168 167 173 169 169 172 172 167 159 156 154 152 151 145 140 141 143 141 143 148 147 143 138 136 136 136 140 141 139 139 136 138 140 134 132 134 126 112 108 104 96 92 84 88 88 80 85 90 88 93 101 106 106 112 119 100 84 78 81 96 95 88 107 122 125 122 108 100 101 98 81 72 69 64 61 60 58 59 63
181 182 183 178 174 176 176 175 171 169 173 173 174 171 165 164 161 158 159 154 150 151 152 152 153 156 159 155 146 144 144 144 149 148 148 149 146 147 142 136 140 136 124 110 102 102 104 103 96 89 84 81 81 80 82 90 95 101 105 112 115 106 99 91 87 94 105 113 119 119 123 120 114 106 99 93 78 60 66 71 68 66 62 59 61
179 184 187 185 181 180 182 179 172 173 177 176 177 177 172 169 166 165 166 163 158 156 155 156 159 164 169 165 155 153 153 152 155 155 154 153 152 150 143 144 147 136 123 111 107 114 112 109 109 97 78 75 80 73 72 86 99 102 106 115 113 104 100 95 108 117 113 130 141 132 130 121 121 119 94 87 95 83 75 80 75 71 66 59 56
178 186 188 188 186 183 185 184 179 181 182 183 182 177 176 174 170 168 168 170 166 160 159 158 162 171 171 167 164 163 163 162 160 157 156 155 152 149 148 150 146 136 127 120 122 122 114 110 106 94 69 74 80 70 78 91 103 112 117 119 109 101 96 86 102 132 137 142 151 140 136 136 115 105 103 98 98 91 79 80 76 70 63 56 51
181 185 185 189 189 184 188 189 187 188 188 189 184 178 179 174 169 168 166 172 168 156 156 159 161 171 169 166 168 169 170 168 162 159 157 156 155 152 152 151 146 140 129 117 114 111 114 110 94 81 63 77 80 72 100 106 100 115 127 128 119 105 94 88 97 113 134 140 147 144 131 131 122 112 109 87 76 73 68 70 71 69 62 57 53
184 186 186 190 191 188 190 194 194 193 192 192 188 183 179 169 167 169 162 160 162 157 163 163 158 163 166 164 166 167 171 169 164 160 156 157 159 156 152 154 151 139 127 118 113 113 120 108 86 75 55 69 79 71 96 105 97 115 125 125 133 118 99 94 93 96 117 132 140 147 132 123 130 127 104 78 67 74 77 79 78 72 65 61 56
186 188 189 190 192 193 193 194 197 197 196 194 189 184 179 171 170 174 166 162 166 168 166 159 155 160 165 165 166 167 169 169 167 162 158 158 157 155 155 159 157 143 138 127 113 123 131 113 100 105 68 64 85 80 89 88 86 116 125 119 136 122 104 106 96 84 104 124 129 139 131 124 125 113 93 84 89 83 70 77 84 77 69 63 56
189 189 191 191 192 195 194 193 196 198 198 194 188 184 180 176 175 178 173 168 169 167 158 155 160 158 160 169 172 170 170 172 173 169 164 161 157 156 157 157 158 156 153 135 135 165 162 148 164 110 68 68 87 93 100 84 83 106 108 111 118 98 83 93 95 78 80 107 120 129 124 124 124 102 91 98 89 79 73 69 70 65 59 53 46
190 191 192 193 193 196 196 193 194 196 197 194 189 186 183 180 180 179 175 169 166 162 154 158 163 154 156 173 175 174 175 176 176 176 173 168 163 163 162 160 169 177 168 163 170 172 160 171 197 125 73 84 91 100 112 98 88 90 86 90 90 75 60 55 83 96 84 86 111 124 119 121 126 97 83 89 69 73 96 62 30 29 24 21 27
189 190 190 193 194 196 197 195 194 193 195 193 191 190 188 186 182 178 176 171 166 166 159 157 160 157 161 171 173 176 175 175 180 181 179 176 172 171 173 171 175 186 178 168 160 154 175 206 212 187 160 116 98 100 116 114 104 91 84 88 78 73 72 58 70 103 102 87 102 118 115 120 127 101 82 81 84 79 88 27 360 353 344 355 17
187 188 189 192 195 198 198 197 196 193 192 193 193 194 193 191 183 179 183 176 169 175 168 163 167 169 167 165 167 176 177 175 181 185 182 180 176 175 181 178 178 188 185 171 171 184 202 213 221 218 200 164 123 112 127 128 121 114 105 97 80 78 76 67 70 82 93 109 119 115 105 115 115 97 86 75 69 53 41 343 333 337 328 335 356
188 189 189 191 195 198 197 196 198 195 192 192 194 196 197 195 189 185 189 184 175 176 172 174 179 178 177 175 174 179 184 183 185 187 185 184 183 183 188 187 185 191 186 184 195 201 208 207 212 227 226 219 205 177 151 128 110 108 108 88 89 87 74 80 82 74 76 99 118 119 113 126 121 92 62 49 44 31 26 344 333 330 321 322 331
190 191 189 190 195 197 195 194 196 196 193 191 194 198 199 199 195 191 194 193 185 180 180 187 189 186 186 188 189 187 187 192 194 195 194 193 195 193 196 200 198 200 197 197 202 205 212 210 207 224 229 230 224 216 210 219 263 342 299 322 76 83 87 119 92 87 93 74 113 147 138 147 141 105 36 5 11 2 360 344 334 324 319 320 319
191 192 190 190 192 195 195 193 193 195 193 191 192 196 200 203 201 197 196 197 195 190 191 194 195 195 190 190 197 196 192 195 198 205 205 202 205 202 200 207 208 208 205 200 197 203 209 211 220 230 233 234 228 222 222 240 266 280 285 285 275 263 231 197 279 24 60 6 290 249 156 344 296 114 29 335 324 327 330 335 333 326 322 317 311
Height
1565 1564 1566 1566 1567 1567 1568 1569 1569 1569 1570 1571 1571 1571 1571 1571 1571 1571 1571 1571 1572 1572 1572 1572 1572 1572 1573 1573 1574 1574 1574 1574 1574 1575 1575 1575 1575 1575 1576 1576 1576 1577 1578 1578 1580 1580 1580 1580 1579 1579 1579 1580 1580 1581 1581 1582 1582 1582 1582 1583 1583 1583 1583 1583 1584 1584 1584 1584 1584 1584 1584 1584 1584 1584 1584 1585 1585 1585 1585 1585 1585 1585 1585 1585 1585
1565 1566 1567 1567 1568 1568 1569 1569 1570 1570 1570 1571 1571 1572 1572 1572 1572 1572 1572 1573 1573 1573 1574 1574 1574 1574 1574 1575 1575 1576 1575 1575 1575 1575 1576 1576 1576 1576 1576 1577 1577 1578 1577 1578 1580 1580 1582 1582 1581 1581 1581 1581 1581 1582 1582 1583 1583 1584 1584 1584 1584 1584 1584 1585 1585 1585 1585 1585 1586 1586 1586 1586 1586 1586 1586 1587 1586 1587 1587 1587 1586 1586 1586 1586 1586
1566 1567 1567 1568 1568 1569 1570 1570 1571 1571 1572 1572 1572 1573 1573 1574 1573 1574 1574 1574 1574 1575 1575 1575 1575 1575 1576 1576 1576 1576 1576 1576 1576 1576 1576 1577 1577 1577 1577 1578 1578 1579 1578 1579 1580 1580 1582 1583 1583 1583 1583 1583 1583 1583 1584 1584 1584 1585 1585 1585 1585 1585 1586 1586 1586 1587 1587 1587 1587 1587 1587 1587 1587 1587 1588 1588 1588 1588 1588 1588 1588 1587 1587 1588 1587
1566 1568 1568 1569 1569 1570 1570 1571 1572 1572 1573 1573 1573 1574 1574 1575 1574 1574 1574 1575 1575 1576 1576 1576 1576 1576 1576 1576 1577 1576 1577 1577 1577 1577 1577 1577 1578 1578 1578 1579 1579 1580 1580 1580 1582 1582 1582 1584 1585 1585 1585 1585 1585 1585 1585 1585 1586 1586 1586 1586 1586 1586 1587 1587 1588 1588 1588 1588 1588 1588 1588 1589 1589 1589 1589 1589 1589 1589 1589 1589 1589 1589 1589 1589 1589
1567 1568 1569 1570 1570 1571 1571 1571 1572 1573 1574 1574 1574 1574 1575 1575 1575 1575 1575 1576 1576 1576 1576 1576 1576 1576 1576 1576 1577 1577 1577 1577 1577 1577 1578 1578 1578 1579 1579 1580 1580 1580 1581 1582 1583 1584 1583 1585 1586 1586 1586 1586 1586 1586 1586 1586 1587 1587 1587 1587 1587 1588 1588 1588 1589 1589 1590 1590 1590 1590 1590 1590 1590 1590 1591 1591 1590 1590 1590 1590 1590 1590 1590 1590 1590
1568 1569 1570 1570 1571 1572 1572 1572 1573 1574 1574 1574 1575 1575 1576 1576 1575 1575 1576 1576 1576 1576 1576 1576 1576 1576 1576 1576 1577 1577 1577 1577 1578 1578 1578 1579 1579 1580 1580 1581 1581 1581 1582 1583 1585 1586 1585 1586 1587 1587 1588 1587 1587 1587 1587 1588 1588 1588 1588 1588 1588 1589 1589 1589 1590 1590 1590 1591 1591 1591 1592 1592 1591 1591 1592 1592 1592 1592 1591 1591 1591 1591 1591 1591 1591
1568 1569 1571 1571 1572 1573 1573 1573 1574 1574 1574 1575 1575 1576 1576 1576 1576 1576 1576 1576 1576 1576 1576 1576 1576 1576 1577 1577 1577 1577 1578 1578 1578 1578 1579 1579 1580 1581 1581 1582 1582 1583 1584 1585 1586 1587 1587 1587 1588 1588 1589 1589 1588 1589 1589 1589 1589 1589 1589 1589 1589 1590 1590 1590 1591 1591 1591 1592 1593 1593 1593 1593 1593 1593 1593 1593 1593 1593 1593 1593 1593 1592 1592 1592 1593
1570 1570 1572 1572 1573 1573 1574 1574 1574 1575 1575 1575 1576 1576 1576 1576 1576 1576 1576 1576 1576 1576 1577 1577 1577 1577 1577 1578 1578 1578 1578 1578 1578 1579 1579 1580 1581 1582 1583 1583 1584 1584 1585 1587 1587 1588 1589 1589 1589 1589 1590 1590 1590 1590 1590 1590 1590 1590 1590 1590 1591 1591 1591 1591 1592 1592 1593 1593 1594 1594 1594 1594 1594 1594 1594 1594 1594 1594 1594 1594 1594 1594 1594 1594 1594
1571 1571 1572 1573 1574 1574 1574 1574 1575 1575 1575 1575 1576 1576 1576 1576 1576 1576 1576 1577 1577 1577 1578 1577 1578 1577 1577 1578 1579 1578 1578 1578 1579 1579 1579 1580 1582 1583 1584 1585 1585 1586 1587 1588 1588 1589 1590 1590 1590 1591 1591 1591 1591 1591 1591 1591 1591 1591 1591 1592 1592 1592 1592 1592 1593 1593 1594 1594 1594 1595 1595 1595 1596 1595 1595 1595 1595 1595 1595 1595 1595 1595 1595 1595 1595
1572 1572 1573 1574 1575 1575 1574 1575 1575 1575 1576 1576 1576 1576 1576 1576 1576 1577 1577 1577 1577 1578 1578 1578 1578 1578 1577 1578 1579 1579 1578 1578 1579 1579 1580 1581 1582 1584 1585 1586 1586 1587 1589 1589 1589 1590 1590 1591 1592 1592 1592 1592 1592 1592 1592 1592 1592 1592 1592 1593 1593 1593 1593 1593 1594 1594 1595 1595 1596 1596 1596 1596 1596 1596 1596 1596 1596 1596 1596 1595 1596 1596 1596 1596 1596
1573 1573 1574 1575 1575 1575 1575 1576 1576 1576 1576 1577 1577 1576 1576 1576 1577 1577 1577 1578 1578 1578 1579 1579 1579 1579 1577 1578 1579 1579 1579 1579 1579 1579 1581 1582 1583 1584 1586 1587 1588 1588 1589 1590 1591 1591 1591 1592 1594 1594 1593 1593 1593 1593 1592 1593 1593 1593 1593 1593 1593 1593 1594 1594 1595 1595 1596 1596 1597 1597 1597 1597 1597 1597 1597 1597 1597 1597 1597 1596 1596 1596 1597 1597 1596
1574 1575 1575 1575 1576 1575 1576 1576 1576 1577 1577 1577 1577 1577 1577 1577 1577 1577 1578 1578 1579 1579 1579 1579 1579 1579 1578 1579 1580 1580 1580 1579 1579 1579 1581 1582 1583 1585 1587 1588 1589 1589 1590 1591 1592 1593 1593 1594 1595 1594 1594 1594 1594 1593 1593 1593 1594 1594 1594 1594 1594 1594 1595 1595 1596 1596 1597 1597 1598 1598 1598 1598 1598 1598 1598 1598 1598 1597 1597 1597 1597 1597 1597 1597 1597
1575 1576 1576 1577 1577 1576 1576 1577 1577 1577 1578 1578 1578 1578 1578 1578 1578 1578 1579 1579 1580 1580 1580 1580 1580 1580 1579 1580 1580 1580 1580 1580 1580 1580 1581 1583 1584 1586 1587 1589 1590 1590 1591 1592 1592 1594 1594 1595 1595 1595 1594 1594 1594 1594 1594 1594 1594 1595 1595 1595 1595 1595 1595 1596 1597 1597 1598 1598 1598 1599 1599 1599 1599 1599 1598 1598 1598 1598 1598 1598 1598 1598 1598 1598 1598
1577 1577 1577 1578 1577 1577 1577 1578 1578 1578 1579 1579 1579 1579 1578 1579 1579 1579 1579 1580 1580 1581 1581 1580 1580 1580 1580 1580 1580 1580 1580 1581 1581 1581 1583 1584 1585 1586 1588 1589 1590 1591 1592 1593 1594 1595 1596 1596 1596 1595 1595 1595 1595 1595 1595 1595 1595 1595 1596 1596 1596 1596 1596 1597 1597 1598 1599 1599 1599 1600 1600 1600 1600 1599 1599 1599 1599 1599 1599 1599 1599 1599 1599 1599 1599
1578 1578 1579 1578 1577 1578 1579 1579 1578 1579 1579 1579 1579 1579 1579 1579 1579 1580 1580 1580 1581 1581 1581 1580 1580 1580 1580 1580 1579 1580 1581 1582 1582 1583 1584 1585 1586 1587 1588 1590 1591 1592 1593 1594 1595 1596 1596 1596 1596 1596 1596 1596 1596 1596 1596 1596 1596 1597 1597 1597 1597 1597 1597 1598 1598 1599 1599 1600 1600 1600 1601 1601 1600 1600 1600 1600 1600 1600 1600 1600 1600 1600 1600 1599 1599
1578 1579 1580 1579 1578 1579 1579 1579 1579 1579 1579 1580 1580 1579 1580 1579 1580 1580 1581 1581 1581 1581 1581 1581 1582 1582 1581 1580 1580 1581 1583 1583 1583 1584 1585 1586 1587 1588 1589 1591 1592 1593 1594 1594 1595 1596 1596 1597 1597 1597 1597 1597 1597 1597 1597 1597 1597 1598 1598 1598 1598 1598 1598 1598 1599 1600 1600 1600 1601 1601 1601 1601 1601 1601 1601 1601 1601 1600 1600 1600 1600 1600 1600 1600 1600
1579 1580 1581 1579 1579 1579 1579 1580 1579 1580 1580 1580 1580 1580 1580 1580 1581 1581 1582 1582 1582 1582 1582 1582 1583 1583 1583 1582 1581 1583 1584 1584 1585 1585 1586 1587 1588 1589 1590 1591 1592 1593 1594 1595 1596 1596 1597 1597 1597 1597 1598 1598 1598 1598 1598 1598 1599 1599 1599 1599 1599 1599 1599 1599 1601 1601 1601 1601 1602 1602 1602 1602 1602 1601 1601 1601 1601 1601 1601 1601 1601 1601 1601 1600 1600
1579 1581 1581 1581 1581 1580 1579 1580 1580 1581 1581 1581 1581 1581 1581 1581 1582 1582 1582 1583 1583 1584 1584 1583 1584 1585 1585 1583 1583 1584 1585 1585 1586 1586 1588 1589 1590 1591 1591 1592 1593 1594 1595 1596 1596 1597 1598 1598 1599 1599 1599 1599 1599 1599 1599 1599 1600 1600 1600 1600 1600 1601 1600 1600 1602 1602 1602 1603 1603 1603 1603 1602 1602 1602 1602 1602 1602 1602 1602 1601 1601 1601 1601 1601 1601
1580 1582 1582 1582 1583 1583 1581 1580 1581 1582 1582 1582 1582 1582 1582 1583 1583 1583 1584 1584 1584 1586 1585 1584 1586 1587 1586 1584 1584 1585 1586 1587 1587 1588 1589 1591 1591 1592 1593 1593 1594 1595 1596 1596 1597 1598 1599 1600 1600 1600 1600 1600 1600 1600 1600 1600 1601 1601 1601 1601 1601 1601 1601 1602 1603 1603 1604 1604 1604 1604 1603 1603 1603 1602 1603 1603 1603 1602 1602 1602 1602 1602 1602 1601 1601
1580 1582 1583 1583 1584 1584 1583 1582 1582 1583 1584 1584 1583 1583 1584 1584 1584 1584 1585 1585 1585 1586 1587 1586 1588 1590 1588 1585 1585 1586 1588 1589 1589 1590 1591 1592 1593 1594 1595 1595 1596 1597 1597 1598 1599 1600 1600 1601 1601 1601 1601 1601 1602 1601 1601 1602 1602 1603 1603 1602 1602 1602 1603 1603 1604 1604 1605 1605 1605 1604 1604 1604 1603 1603 1603 1603 1603 1603 1603 1603 1603 1602 1602 1602 1602
1581 1582 1583 1584 1584 1585 1584 1583 1583 1584 1585 1585 1585 1585 1585 1585 1585 1586 1586 1586 1586 1587 1588 1588 1589 1591 1590 1587 1587 1588 1589 1590 1590 1591 1592 1594 1595 1596 1596 1597 1598 1598 1599 1599 1600 1601 1601 1602 1602 1602 1602 1603 1603 1603 1603 1603 1603 1604 1604 1604 1603 1604 1604 1604 1605 1606 1606 1605 1605 1605 1605 1604 1604 1604 1604 1604 1604 1604 1604 1603 1603 1603 1602 1602 1602
1581 1582 1583 1584 1585 1585 1585 1585 1585 1584 1585 1585 1586 1586 1586 1587 1587 1587 1587 1588 1588 1588 1589 1589 1590 1591 1592 1591 1589 1589 1590 1591 1592 1593 1594 1595 1597 1598 1598 1599 1599 1600 1600 1601 1601 1602 1602 1603 1603 1603 1604 1604 1604 1604 1604 1605 1605 1605 1605 1605 1605 1605 1605 1605 1606 1606 1606 1606 1606 1606 1605 1605 1605 1605 1605 1605 1604 1604 1604 1604 1603 1603 1603 1603 1602
1582 1583 1583 1584 1585 1585 1586 1586 1585 1585 1585 1586 1587 1587 1588 1588 1588 1588 1589 1589 1590 1590 1590 1590 1591 1591 1592 1593 1591 1591 1591 1592 1594 1595 1596 1597 1598 1599 1600 1600 1601 1601 1601 1602 1602 1603 1604 1604 1605 1605 1605 1605 1605 1605 1606 1606 1606 1606 1606 1606 1606 1606 1606 1606 1607 1607 1607 1607 1606 1606 1605 1605 1605 1605 1605 1605 1605 1605 1604 1604 1604 1603 1603 1603 1603
1583 1583 1584 1584 1585 1585 1586 1586 1586 1586 1586 1586 1587 1588 1588 1589 1589 1590 1590 1590 1591 1591 1592 1592 1592 1592 1593 1593 1594 1593 1593 1594 1595 1597 1598 1599 1600 1601 1601 1602 1603 1603 1603 1603 1603 1604 1604 1605 1605 1605 1606 1606 1606 1607 1608 1608 1608 1608 1608 1608 1608 1607 1607 1607 1608 1608 1608 1607 1607 1607 1606 1606 1606 1605 1605 1605 1605 1605 1605 1605 1604 1604 1604 1603 1603
1583 1584 1584 1584 1585 1585 1586 1587 1587 1587 1586 1587 1587 1588 1589 1590 1590 1591 1591 1591 1592 1593 1593 1593 1593 1593 1593 1594 1596 1596 1596 1596 1597 1598 1600 1601 1602 1603 1603 1604 1604 1604 1605 1605 1605 1605 1606 1606 1606 1607 1607 1608 1608 1609 1610 1610 1610 1610 1610 1610 1609 1608 1609 1609 1609 1608 1608 1608 1608 1607 1607 1606 1606 1606 1606 1605 1605 1605 1605 1605 1605 1604 1604 1604 1603
1582 1584 1584 1584 1585 1585 1586 1587 1587 1587 1587 1587 1588 1589 1589 1590 1591 1592 1592 1593 1593 1594 1594 1594 1594 1594 1594 1595 1597 1599 1599 1599 1599 1600 1601 1602 1603 1604 1605 1606 1606 1607 1607 1607 1608 1608 1608 1609 1609 1609 1609 1610 1610 1610 1610 1611 1611 1611 1611 1610 1610 1610 1610 1610 1610 1609 1609 1609 1608 1608 1607 1607 1607 1606 1606 1606 1606 1606 1606 1605 1605 1605 1604 1604 1604
1583 1584 1584 1584 1585 1585 1586 1587 1588 1588 1588 1588 1588 1589 1590 1591 1592 1592 1593 1594 1594 1595 1595 1596 1596 1595 1594 1595 1597 1599 1601 1602 1602 1601 1602 1603 1604 1605 1606 1607 1608 1608 1609 1610 1610 1609 1609 1609 1609 1609 1610 1611 1611 1611 1611 1611 1612 1612 1612 1611 1611 1611 1611 1611 1611 1610 1610 1610 1609 1609 1608 1607 1607 1607 1607 1606 1606 1606 1606 1606 1606 1605 1605 1605 1605
1583 1584 1584 1585 1585 1586 1586 1587 1588 1589 1589 1589 1589 1589 1590 1591 1592 1593 1594 1594 1595 1596 1596 1597 1597 1596 1596 1596 1597 1599 1601 1602 1603 1603 1604 1605 1606 1607 1608 1609 1610 1610 1612 1613 1613 1612 1611 1611 1611 1611 1612 1612 1613 1613 1613 1613 1613 1614 1614 1613 1612 1612 1612 1612 1611 1611 1611 1610 1610 1609 1608 1608 1608 1608 1607 1607 1607 1607 1607 1606 1606 1606 1606 1605 1605
1583 1584 1585 1585 1586 1586 1586 1587 1588 1589 1590 1590 1590 1590 1591 1592 1592 1593 1594 1595 1595 1596 1597 1598 1598 1598 1598 1598 1598 1599 1600 1602 1603 1604 1605 1605 1606 1608 1609 1610 1612 1613 1614 1616 1616 1615 1615 1614 1614 1614 1614 1614 1615 1614 1615 1615 1615 1615 1615 1614 1614 1613 1613 1613 1612 1612 1612 1611 1611 1610 1609 1609 1608 1608 1608 1607 1607 1607 1607 1607 1607 1607 1606 1606 1606
1584 1584 1585 1586 1586 1586 1586 1587 1588 1589 1590 1590 1591 1592 1592 1592 1593 1594 1595 1595 1596 1597 1598 1598 1599 1599 1599 1599 1599 1600 1601 1602 1603 1604 1605 1606 1607 1608 1610 1611 1613 1614 1616 1616 1616 1616 1616 1616 1616 1616 1616 1616 1616 1615 1615 1616 1616 1615 1615 1615 1615 1615 1614 1613 1613 1613 1613 1612 1611 1611 1610 1609 1609 1609 1608 1608 1608 1608 1608 1608 1608 1607 1607 1607 1607
1584 1585 1585 1586 1586 1587 1587 1587 1588 1589 1589 1590 1591 1592 1593 1593 1594 1595 1595 1596 1597 1597 1598 1599 1599 1600 1600 1601 1601 1601 1602 1603 1603 1604 1605 1606 1608 1609 1611 1612 1613 1615 1616 1616 1616 1617 1617 1617 1616 1616 1616 1616 1616 1615 1616 1617 1617 1616 1616 1616 1616 1616 1615 1615 1615 1615 1614 1613 1612 1611 1611 1610 1610 1610 1609 1609 1609 1609 1609 1609 1608 1608 1608 1608 1607
1584 1585 1585 1586 1587 1588 1588 1588 1588 1589 1589 1590 1591 1592 1593 1594 1594 1595 1596 1596 1597 1598 1599 1599 1600 1601 1601 1602 1602 1603 1603 1604 1604 1605 1606 1607 1608 1610 1611 1613 1614 1614 1616 1616 1616 1617 1617 1617 1616 1616 1616 1616 1616 1616 1616 1617 1617 1617 1617 1617 1617 1616 1616 1616 1616 1616 1615 1614 1612 1612 1612 1611 1611 1610 1610 1610 1610 1610 1610 1609 1609 1609 1609 1608 1608
1584 1585 1585 1586 1587 1588 1588 1588 1589 1589 1590 1591 1591 1592 1593 1594 1595 1595 1596 1597 1597 1598 1599 1600 1601 1601 1602 1602 1603 1604 1604 1605 1606 1606 1607 1608 1609 1611 1612 1613 1614 1614 1615 1616 1616 1617 1617 1617 1617 1617 1616 1617 1617 1617 1617 1618 1618 1618 1618 1618 1617 1617 1617 1617 1617 1616 1616 1616 1614 1613 1613 1612 1612 1612 1611 1611 1611 1611 1610 1610 1610 1610 1609 1609 1609
1584 1585 1585 1586 1587 1588 1589 1589 1590 1590 1591 1591 1592 1593 1594 1594 1595 1596 1597 1597 1598 1599 1600 1600 1601 1602 1603 1603 1604 1605 1605 1606 1607 1608 1609 1610 1610 1611 1613 1613 1614 1614 1615 1616 1616 1617 1617 1617 1618 1618 1617 1617 1618 1618 1618 1619 1618 1618 1618 1618 1618 1618 1618 1618 1618 1617 1617 1617 1615 1614 1614 1614 1613 1613 1612 1612 1612 1612 1611 1611 1611 1610 1610 1610 1609
1583 1584 1585 1586 1587 1588 1589 1590 1590 1591 1591 1592 1593 1593 1594 1595 1596 1596 1597 1598 1598 1600 1601 1601 1602 1603 1604 1604 1605 1605 1606 1607 1608 1609 1609 1611 1612 1612 1613 1614 1614 1615 1615 1616 1616 1617 1617 1618 1618 1618 1618 1618 1618 1618 1619 1619 1619 1619 1618 1618 1618 1618 1618 1618 1618 1618 1617 1617 1616 1615 1615 1614 1614 1614 1613 1613 1613 1613 1612 1612 1612 1611 1611 1610 1610
1583 1584 1585 1586 1587 1588 1589 1590 1590 1591 1592 1593 1593 1594 1595 1595 1596 1597 1598 1598 1599 1600 1601 1602 1603 1604 1604 1605 1605 1606 1607 1608 1609 1609 1610 1612 1613 1613 1613 1614 1614 1615 1616 1616 1617 1617 1618 1618 1618 1619 1619 1618 1619 1619 1619 1619 1619 1619 1619 1619 1619 1618 1619 1619 1618 1619 1618 1617 1617 1616 1615 1615 1614 1614 1614 1614 1614 1614 1613 1613 1612 1612 1612 1611 1611
1583 1584 1585 1586 1587 1587 1588 1590 1591 1591 1592 1593 1594 1594 1595 1596 1597 1598 1598 1599 1600 1601 1602 1603 1604 1605 1605 1606 1606 1607 1608 1609 1609 1610 1611 1612 1613 1614 1614 1614 1615 1615 1616 1616 1617 1618 1618 1618 1618 1618 1619 1618 1619 1619 1619 1619 1619 1619 1619 1619 1619 1619 1619 1619 1619 1619 1618 1617 1617 1617 1617 1616 1615 1615 1615 1615 1615 1614 1614 1614 1613 1613 1613 1612 1612
1582 1583 1585 1586 1587 1588 1588 1590 1591 1591 1592 1593 1594 1595 1596 1596 1597 1598 1599 1600 1601 1602 1603 1603 1605 1605 1606 1606 1607 1608 1608 1609 1610 1611 1612 1613 1613 1614 1615 1615 1615 1616 1616 1617 1618 1618 1618 1619 1619 1618 1618 1618 1619 1619 1619 1619 1620 1620 1620 1620 1619 1619 1620 1619 1619 1619 1619 1618 1618 1618 1618 1617 1617 1616 1615 1616 1616 1615 1615 1615 1614 1614 1614 1613 1613
1582 1583 1584 1585 1586 1587 1588 1589 1590 1591 1592 1593 1594 1595 1596 1597 1598 1599 1600 1600 1601 1602 1603 1604 1605 1606 1606 1607 1607 1608 1609 1610 1610 1611 1612 1613 1614 1614 1615 1615 1615 1616 1617 1618 1618 1618 1618 1618 1619 1618 1618 1619 1619 1619 1619 1619 1620 1620 1620 1620 1620 1619 1620 1620 1619 1619 1619 1619 1619 1619 1619 1618 1618 1617 1616 1616 1616 1616 1616 1615 1615 1615 1615 1614 1614
1582 1583 1583 1584 1585 1587 1587 1588 1589 1591 1592 1593 1594 1595 1596 1597 1598 1599 1600 1601 1601 1602 1603 1604 1605 1606 1607 1607 1608 1608 1609 1610 1611 1612 1612 1613 1614 1615 1615 1615 1616 1616 1617 1618 1619 1619 1618 1618 1618 1619 1619 1619 1619 1620 1620 1620 1620 1620 1620 1620 1620 1620 1620 1619 1620 1620 1620 1620 1619 1619 1620 1620 1619 1618 1617 1617 1617 1618 1617 1616 1616 1616 1616 1615 1615
1581 1582 1583 1584 1585 1586 1587 1588 1589 1590 1591 1592 1594 1595 1596 1597 1598 1600 1600 1601 1601 1602 1603 1604 1605 1606 1606 1607 1608 1609 1609 1610 1611 1612 1613 1614 1614 1615 1615 1616 1616 1617 1617 1618 1618 1618 1618 1619 1619 1619 1619 1619 1620 1620 1620 1620 1620 1620 1620 1620 1620 1620 1620 1619 1620 1620 1620 1621 1620 1620 1620 1620 1620 1619 1618 1618 1617 1618 1617 1617 1617 1617 1616 1616 1615
1580 1581 1583 1584 1585 1586 1587 1588 1589 1590 1591 1592 1593 1595 1596 1597 1598 1600 1601 1602 1602 1602 1604 1605 1606 1606 1606 1607 1608 1609 1610 1610 1611 1612 1613 1614 1615 1615 1616 1616 1617 1617 1617 1618 1618 1618 1619 1619 1619 1620 1620 1620 1620 1620 1619 1620 1620 1620 1620 1620 1620 1620 1620 1620 1620 1621 1621 1621 1621 1621 1620 1621 1621 1620 1619 1619 1618 1619 1619 1618 1617 1617 1617 1616 1616
1580 1581 1582 1583 1584 1585 1586 1587 1588 1589 1591 1592 1593 1594 1595 1596 1598 1599 1601 1602 1602 1603 1604 1604 1605 1606 1606 1607 1608 1609 1610 1611 1611 1612 1613 1614 1615 1615 1616 1617 1617 1617 1618 1618 1618 1619 1619 1619 1620 1621 1621 1621 1621 1621 1620 1619 1620 1621 1620 1620 1620 1620 1620 1621 1621 1621 1621 1621 1621 1621 1621 1621 1621 1620 1620 1620 1620 1620 1620 1619 1618 1618 1617 1617 1617
1579 1580 1582 1583 1584 1584 1585 1586 1588 1589 1590 1591 1592 1594 1595 1596 1597 1598 1599 1601 1602 1602 1603 1604 1605 1606 1607 1607 1608 1609 1610 1611 1612 1613 1613 1614 1615 1615 1616 1617 1617 1617 1618 1618 1619 1619 1620 1620 1621 1621 1621 1621 1621 1621 1621 1620 1620 1620 1621 1621 1620 1620 1620 1621 1621 1621 1621 1621 1621 1621 1621 1622 1621 1621 1621 1622 1621 1620 1620 1619 1619 1618 1618 1617 1617
1578 1579 1581 1582 1583 1584 1585 1586 1587 1588 1589 1591 1592 1593 1594 1595 1596 1597 1598 1600 1601 1602 1603 1604 1605 1606 1607 1608 1608 1609 1610 1611 1612 1613 1613 1614 1615 1615 1616 1617 1617 1618 1618 1619 1620 1620 1620 1621 1621 1621 1621 1622 1622 1622 1622 1621 1621 1620 1620 1621 1620 1620 1620 1620 1621 1621 1621 1621 1622 1622 1621 1622 1622 1621 1621 1622 1621 1621 1621 1621 1620 1619 1618 1618 1617
1577 1579 1580 1581 1583 1583 1584 1585 1587 1588 1589 1590 1591 1593 1594 1595 1596 1597 1599 1600 1601 1602 1604 1605 1606 1607 1608 1608 1608 1609 1610 1611 1612 1613 1614 1614 1615 1615 1616 1617 1617 1618 1618 1619 1620 1620 1621 1621 1621 1621 1621 1621 1621 1622 1622 1622 1622 1621 1621 1621 1621 1622 1622 1621 1621 1621 1622 1621 1622 1622 1622 1622 1622 1622 1622 1622 1622 1622 1622 1621 1621 1620 1619 1619 1618
1576 1578 1579 1580 1582 1583 1583 1585 1586 1587 1588 1590 1591 1592 1594 1595 1596 1597 1599 1600 1601 1603 1604 1605 1606 1607 1608 1608 1609 1609 1610 1611 1612 1613 1614 1614 1615 1616 1616 1617 1618 1618 1618 1618 1619 1621 1621 1621 1621 1621 1621 1621 1621 1622 1622 1623 1622 1622 1623 1623 1622 1622 1622 1622 1621 1621 1622 1622 1622 1622 1622 1622 1622 1622 1622 1622 1622 1622 1622 1622 1622 1621 1620 1619 1618
1576 1577 1578 1580 1581 1582 1583 1584 1585 1587 1588 1589 1591 1592 1593 1594 1596 1597 1599 1600 1602 1602 1603 1604 1606 1606 1607 1608 1609 1610 1610 1611 1612 1613 1613 1614 1615 1615 1616 1616 1617 1618 1618 1618 1619 1620 1621 1620 1620 1620 1621 1621 1621 1621 1622 1622 1623 1623 1623 1623 1623 1622 1622 1622 1622 1622 1622 1621 1622 1622 1622 1622 1622 1622 1622 1622 1622 1622 1622 1622 1621 1621 1621 1619 1618
1575 1576 1578 1579 1580 1580 1582 1583 1585 1586 1587 1589 1590 1591 1593 1594 1596 1597 1598 1600 1601 1602 1603 1604 1605 1606 1607 1608 1609 1610 1610 1611 1612 1612 1613 1614 1614 1615 1616 1616 1617 1617 1618 1619 1619 1619 1619 1620 1620 1620 1620 1621 1621 1621 1621 1622 1623 1623 1623 1623 1623 1623 1623 1623 1622 1622 1622 1621 1621 1622 1622 1622 1622 1622 1622 1622 1622 1622 1622 1622 1621 1621 1621 1620 1618
1574 1575 1577 1578 1579 1580 1581 1582 1584 1585 1587 1588 1590 1591 1593 1594 1595 1597 1598 1599 1601 1602 1603 1604 1605 1606 1607 1608 1608 1609 1610 1611 1612 1612 1613 1614 1614 1615 1615 1616 1617 1617 1618 1618 1619 1619 1619 1619 1619 1620 1620 1620 1620 1621 1621 1622 1622 1623 1623 1623 1623 1623 1623 1623 1623 1623 1623 1622 1622 1621 1622 1622 1622 1622 1622 1622 1622 1622 1622 1621 1621 1621 1621 1620 1619
1572 1574 1576 1577 1578 1579 1580 1582 1583 1585 1586 1587 1589 1591 1592 1593 1595 1596 1598 1599 1600 1601 1603 1603 1604 1605 1606 1607 1608 1609 1610 1611 1612 1612 1612 1613 1614 1614 1615 1616 1616 1617 1617 1617 1618 1619 1619 1619 1619 1619 1620 1620 1620 1620 1621 1622 1622 1622 1623 1623 1623 1623 1624 1623 1623 1623 1623 1623 1622 1621 1621 1622 1622 1622 1622 1622 1622 1622 1622 1621 1621 1621 1620 1619 1619